GPS BIIF-4

Last updated on Tue Sep 22 2026 00:03:02 GMT+0000 (Coordinated Universal Time)

1 39166U 13023A 26264.40885605 .00000027 00000+0 00000+0 0 9997 2 39166 54.4367 265.0465 0142607 51.1523 310.1362 2.00563402 97814
UTC large
Height (km)
Speed (km/s)
/
Latitude / Longitude
Inclination (degrees)
Orbital Period (minutes)
Azimuth
Elevation
Range (km)
Doppler Factor

Next 0 passes for location: London (51.5072 / 0.1276)

No passes found over London.
GPS BIIF-4